owner,sensor,date,latitude,longitude,vertical_datum,sea_water_practical_salinity,qcFlag 
DISL,ioos:station:DISL:BSCA:1,2013-03-01T00:00:00Z,30.3288,-87.8293,1.721,5.68,1111122 
DISL,ioos:station:DISL:BSCA:1,2013-03-01T00:30:00Z,30.3288,-87.8293,1.732,5.69,1111122 
DISL,ioos:station:DISL:BSCA:1,2013-03-01T01:00:00Z,30.3288,-87.8293,1.72,5.69,1111122 
DISL,ioos:station:DISL:BSCA:1,2013-03-01T01:30:00Z,30.3288,-87.8293,1.692,5.69,1111122 
DISL,ioos:station:DISL:BSCA:1,2013-03-01T02:00:00Z,30.3288,-87.8293,1.696,5.71,1111122 
DISL,ioos:station:DISL:BSCA:1,2013-03-01T02:30:00Z,30.3288,-87.8293,1.677,5.73,1111122 
DISL,ioos:station:DISL:BSCA:1,2013-03-01T03:00:00Z,30.3288,-87.8293,1.658,5.58,1111122 
DISL,ioos:station:DISL:BSCA:1,2013-03-01T03:30:00Z,30.3288,-87.8293,1.646,5.51,1111122 
DISL,ioos:station:DISL:BSCA:1,2013-03-01T04:00:00Z,30.3288,-87.8293,1.659,5.47,1111122 
DISL,ioos:station:DISL:BSCA:1,2013-03-01T04:30:00Z,30.3288,-87.8293,1.643,5.41,1111122 
DISL,ioos:station:DISL:BSCA:1,2013-03-01T05:00:00Z,30.3288,-87.8293,1.641,5.34,1111122 
DISL,ioos:station:DISL:BSCA:1,2013-03-01T05:30:00Z,30.3288,-87.8293,1.648,5.33,1111122 
DISL,ioos:station:DISL:BSCA:1,2013-03-01T06:00:00Z,30.3288,-87.8293,1.643,5.33,1111122 
DISL,ioos:station:DISL:BSCA:1,2013-03-01T06:30:00Z,30.3288,-87.8293,1.654,5.3,1111122 
DISL,ioos:station:DISL:BSCA:1,2013-03-01T07:00:00Z,30.3288,-87.8293,1.628,5.34,1111122 
DISL,ioos:station:DISL:BSCA:1,2013-03-01T07:30:00Z,30.3288,-87.8293,1.622,5.36,1111122 
DISL,ioos:station:DISL:BSCA:1,2013-03-01T08:00:00Z,30.3288,-87.8293,1.613,5.41,1111122 
DISL,ioos:station:DISL:BSCA:1,2013-03-01T08:30:00Z,30.3288,-87.8293,1.603,5.48,1111122 
DISL,ioos:station:DISL:BSCA:1,2013-03-01T09:00:00Z,30.3288,-87.8293,1.597,5.56,1111122 
DISL,ioos:station:DISL:BSCA:1,2013-03-01T09:30:00Z,30.3288,-87.8293,1.604,5.61,1111122 
DISL,ioos:station:DISL:BSCA:1,2013-03-01T10:00:00Z,30.3288,-87.8293,1.609,5.71,1111122 
DISL,ioos:station:DISL:BSCA:1,2013-03-01T10:30:00Z,30.3288,-87.8293,1.609,5.58,1111122 
DISL,ioos:station:DISL:BSCA:1,2013-03-01T11:00:00Z,30.3288,-87.8293,1.615,5.6,1111122 
DISL,ioos:station:DISL:BSCA:1,2013-03-01T11:30:00Z,30.3288,-87.8293,1.621,5.64,1111122 
DISL,ioos:station:DISL:BSCA:1,2013-03-01T12:00:00Z,30.3288,-87.8293,1.629,5.63,1111122 
DISL,ioos:station:DISL:BSCA:1,2013-03-01T12:30:00Z,30.3288,-87.8293,1.627,5.61,1111122 
DISL,ioos:station:DISL:BSCA:1,2013-03-01T13:00:00Z,30.3288,-87.8293,1.64,5.58,1111122 
DISL,ioos:station:DISL:BSCA:1,2013-03-01T13:30:00Z,30.3288,-87.8293,1.651,5.59,1111122 
DISL,ioos:station:DISL:BSCA:1,2013-03-01T14:00:00Z,30.3288,-87.8293,1.659,5.46,1111122 
DISL,ioos:station:DISL:BSCA:1,2013-03-01T14:30:00Z,30.3288,-87.8293,1.674,5.55,1111122 
DISL,ioos:station:DISL:BSCA:1,2013-03-01T15:00:00Z,30.3288,-87.8293,1.688,5.58,1111122 
DISL,ioos:station:DISL:BSCA:1,2013-03-01T15:30:00Z,30.3288,-87.8293,1.713,5.65,1111122 
DISL,ioos:station:DISL:BSCA:1,2013-03-01T16:00:00Z,30.3288,-87.8293,1.731,5.65,1111122 
DISL,ioos:station:DISL:BSCA:1,2013-03-01T16:30:00Z,30.3288,-87.8293,1.756,5.66,1111122 
DISL,ioos:station:DISL:BSCA:1,2013-03-01T17:00:00Z,30.3288,-87.8293,1.773,5.64,1111122 
DISL,ioos:station:DISL:BSCA:1,2013-03-01T17:30:00Z,30.3288,-87.8293,1.795,5.54,1111122 
DISL,ioos:station:DISL:BSCA:1,2013-03-01T18:00:00Z,30.3288,-87.8293,1.817,5.47,1111122 
DISL,ioos:station:DISL:BSCA:1,2013-03-01T18:30:00Z,30.3288,-87.8293,1.835,5.57,1111122 
DISL,ioos:station:DISL:BSCA:1,2013-03-01T19:00:00Z,30.3288,-87.8293,1.84,5.58,1111122 
DISL,ioos:station:DISL:BSCA:1,2013-03-01T19:30:00Z,30.3288,-87.8293,1.858,5.58,1111122 
DISL,ioos:station:DISL:BSCA:1,2013-03-01T20:00:00Z,30.3288,-87.8293,1.864,5.5,1111122 
DISL,ioos:station:DISL:BSCA:1,2013-03-01T20:30:00Z,30.3288,-87.8293,1.859,5.49,1111122 
DISL,ioos:station:DISL:BSCA:1,2013-03-01T21:00:00Z,30.3288,-87.8293,1.854,5.64,1111122 
DISL,ioos:station:DISL:BSCA:1,2013-03-01T21:30:00Z,30.3288,-87.8293,1.85,5.63,1111122 
DISL,ioos:station:DISL:BSCA:1,2013-03-01T22:00:00Z,30.3288,-87.8293,1.826,5.64,1111122 
DISL,ioos:station:DISL:BSCA:1,2013-03-01T22:30:00Z,30.3288,-87.8293,1.844,5.63,1111122 
DISL,ioos:station:DISL:BSCA:1,2013-03-01T23:00:00Z,30.3288,-87.8293,1.825,5.33,1111122 
DISL,ioos:station:DISL:BSCA:1,2013-03-01T23:30:00Z,30.3288,-87.8293,1.831,5.3,1111122 
DISL,ioos:station:DISL:BSCA:1,2013-03-02T00:00:00Z,30.3288,-87.8293,1.818,5.18,1111122 
DISL,ioos:station:DISL:BSCA:1,2013-03-02T00:30:00Z,30.3288,-87.8293,1.791,5.04,1111122 
DISL,ioos:station:DISL:BSCA:1,2013-03-02T01:00:00Z,30.3288,-87.8293,1.756,4.73,1111122 
DISL,ioos:station:DISL:BSCA:1,2013-03-02T01:30:00Z,30.3288,-87.8293,1.727,4.47,1111122 
DISL,ioos:station:DISL:BSCA:1,2013-03-02T02:00:00Z,30.3288,-87.8293,1.704,4.91,1111122 
DISL,ioos:station:DISL:BSCA:1,2013-03-02T02:30:00Z,30.3288,-87.8293,1.68,4.94,1111122 
DISL,ioos:station:DISL:BSCA:1,2013-03-02T03:00:00Z,30.3288,-87.8293,1.612,4.89,1111122 
DISL,ioos:station:DISL:BSCA:1,2013-03-02T03:30:00Z,30.3288,-87.8293,1.724,4.46,1111122 
DISL,ioos:station:DISL:BSCA:1,2013-03-02T04:00:00Z,30.3288,-87.8293,1.639,4.49,1111122 
DISL,ioos:station:DISL:BSCA:1,2013-03-02T04:30:00Z,30.3288,-87.8293,1.63,4.53,1111122 
DISL,ioos:station:DISL:BSCA:1,2013-03-02T05:00:00Z,30.3288,-87.8293,1.653,4.51,1111122 
DISL,ioos:station:DISL:BSCA:1,2013-03-02T05:30:00Z,30.3288,-87.8293,1.576,5.1,1111122 
DISL,ioos:station:DISL:BSCA:1,2013-03-02T06:00:00Z,30.3288,-87.8293,1.505,5.21,1111122 
DISL,ioos:station:DISL:BSCA:1,2013-03-02T06:30:00Z,30.3288,-87.8293,1.463,5.4,1111122 
DISL,ioos:station:DISL:BSCA:1,2013-03-02T07:00:00Z,30.3288,-87.8293,1.441,5.4,1111122 
DISL,ioos:station:DISL:BSCA:1,2013-03-02T07:30:00Z,30.3288,-87.8293,1.438,5.4,1111122 
DISL,ioos:station:DISL:BSCA:1,2013-03-02T08:00:00Z,30.3288,-87.8293,1.48,5.41,1111122 
DISL,ioos:station:DISL:BSCA:1,2013-03-02T08:30:00Z,30.3288,-87.8293,1.51,5.41,1111122 
DISL,ioos:station:DISL:BSCA:1,2013-03-02T09:00:00Z,30.3288,-87.8293,1.567,5.44,1111122 
DISL,ioos:station:DISL:BSCA:1,2013-03-02T09:30:00Z,30.3288,-87.8293,1.575,5.51,1111122 
DISL,ioos:station:DISL:BSCA:1,2013-03-02T10:00:00Z,30.3288,-87.8293,1.582,5.62,1111122 
DISL,ioos:station:DISL:BSCA:1,2013-03-02T10:30:00Z,30.3288,-87.8293,1.595,5.73,1111122 
DISL,ioos:station:DISL:BSCA:1,2013-03-02T11:00:00Z,30.3288,-87.8293,1.581,5.91,1111122 
DISL,ioos:station:DISL:BSCA:1,2013-03-02T11:30:00Z,30.3288,-87.8293,1.594,5.91,1111122 
DISL,ioos:station:DISL:BSCA:1,2013-03-02T12:00:00Z,30.3288,-87.8293,1.606,5.93,1111122 
DISL,ioos:station:DISL:BSCA:1,2013-03-02T12:30:00Z,30.3288,-87.8293,1.614,5.95,1111122 
DISL,ioos:station:DISL:BSCA:1,2013-03-02T13:00:00Z,30.3288,-87.8293,1.647,5.98,1111122 
DISL,ioos:station:DISL:BSCA:1,2013-03-02T13:30:00Z,30.3288,-87.8293,1.658,6.01,1111122 
DISL,ioos:station:DISL:BSCA:1,2013-03-02T14:00:00Z,30.3288,-87.8293,1.682,6.06,1111122 
DISL,ioos:station:DISL:BSCA:1,2013-03-02T14:30:00Z,30.3288,-87.8293,1.706,6.15,1111122 
DISL,ioos:station:DISL:BSCA:1,2013-03-02T15:00:00Z,30.3288,-87.8293,1.712,6.22,1111122 
DISL,ioos:station:DISL:BSCA:1,2013-03-02T15:30:00Z,30.3288,-87.8293,1.73,6.26,1111122 
DISL,ioos:station:DISL:BSCA:1,2013-03-02T16:00:00Z,30.3288,-87.8293,1.746,6.27,1111122 
DISL,ioos:station:DISL:BSCA:1,2013-03-02T16:30:00Z,30.3288,-87.8293,1.759,6.26,1111122 
DISL,ioos:station:DISL:BSCA:1,2013-03-02T17:00:00Z,30.3288,-87.8293,1.753,6.27,1111122 
DISL,ioos:station:DISL:BSCA:1,2013-03-02T17:30:00Z,30.3288,-87.8293,1.818,6.28,1111122 
DISL,ioos:station:DISL:BSCA:1,2013-03-02T18:00:00Z,30.3288,-87.8293,1.825,6.28,1111122 
DISL,ioos:station:DISL:BSCA:1,2013-03-02T18:30:00Z,30.3288,-87.8293,1.888,6.28,1111122 
DISL,ioos:station:DISL:BSCA:1,2013-03-02T19:00:00Z,30.3288,-87.8293,1.881,6.26,1111122 
DISL,ioos:station:DISL:BSCA:1,2013-03-02T19:30:00Z,30.3288,-87.8293,1.97,6.21,1111122 
DISL,ioos:station:DISL:BSCA:1,2013-03-02T20:00:00Z,30.3288,-87.8293,1.951,6.19,1111122 
DISL,ioos:station:DISL:BSCA:1,2013-03-02T20:30:00Z,30.3288,-87.8293,1.937,6.17,1111122 
DISL,ioos:station:DISL:BSCA:1,2013-03-02T21:00:00Z,30.3288,-87.8293,1.852,6.14,1111122 
DISL,ioos:station:DISL:BSCA:1,2013-03-02T21:30:00Z,30.3288,-87.8293,1.812,6.13,1111122 
DISL,ioos:station:DISL:BSCA:1,2013-03-02T22:00:00Z,30.3288,-87.8293,1.884,6.11,1111122 
DISL,ioos:station:DISL:BSCA:1,2013-03-02T22:30:00Z,30.3288,-87.8293,1.905,6.05,1111122 
DISL,ioos:station:DISL:BSCA:1,2013-03-02T23:00:00Z,30.3288,-87.8293,1.812,5.87,1111122 
DISL,ioos:station:DISL:BSCA:1,2013-03-02T23:30:00Z,30.3288,-87.8293,1.777,5.7,1111122 
DISL,ioos:station:DISL:BSCA:1,2013-03-03T00:00:00Z,30.3288,-87.8293,1.711,5.54,1111122 
DISL,ioos:station:DISL:BSCA:1,2013-03-03T00:30:00Z,30.3288,-87.8293,1.718,5.51,1111122 
DISL,ioos:station:DISL:BSCA:1,2013-03-03T01:00:00Z,30.3288,-87.8293,1.671,5.51,1111122 
DISL,ioos:station:DISL:BSCA:1,2013-03-03T01:30:00Z,30.3288,-87.8293,1.625,5.27,1111122 
DISL,ioos:station:DISL:BSCA:1,2013-03-03T02:00:00Z,30.3288,-87.8293,1.686,5.35,1111122 
DISL,ioos:station:DISL:BSCA:1,2013-03-03T02:30:00Z,30.3288,-87.8293,1.577,4.98,1111122 
DISL,ioos:station:DISL:BSCA:1,2013-03-03T03:00:00Z,30.3288,-87.8293,1.573,4.91,1111122 
DISL,ioos:station:DISL:BSCA:1,2013-03-03T03:30:00Z,30.3288,-87.8293,1.517,4.77,1111122 
DISL,ioos:station:DISL:BSCA:1,2013-03-03T04:00:00Z,30.3288,-87.8293,1.533,4.68,1111122 
DISL,ioos:station:DISL:BSCA:1,2013-03-03T04:30:00Z,30.3288,-87.8293,1.507,4.61,1111122 
DISL,ioos:station:DISL:BSCA:1,2013-03-03T05:00:00Z,30.3288,-87.8293,1.561,4.5,1111122 
DISL,ioos:station:DISL:BSCA:1,2013-03-03T05:30:00Z,30.3288,-87.8293,1.503,4.42,1111122 
DISL,ioos:station:DISL:BSCA:1,2013-03-03T06:00:00Z,30.3288,-87.8293,1.469,4.33,1111122 
DISL,ioos:station:DISL:BSCA:1,2013-03-03T06:30:00Z,30.3288,-87.8293,1.41,4.28,1111122 
DISL,ioos:station:DISL:BSCA:1,2013-03-03T07:00:00Z,30.3288,-87.8293,1.428,4.21,1111122 
DISL,ioos:station:DISL:BSCA:1,2013-03-03T07:30:00Z,30.3288,-87.8293,1.414,4.12,1111122 
DISL,ioos:station:DISL:BSCA:1,2013-03-03T08:00:00Z,30.3288,-87.8293,1.418,4.07,1111122 
DISL,ioos:station:DISL:BSCA:1,2013-03-03T08:30:00Z,30.3288,-87.8293,1.41,3.91,1111122 
DISL,ioos:station:DISL:BSCA:1,2013-03-03T09:00:00Z,30.3288,-87.8293,1.422,3.85,1111122 
DISL,ioos:station:DISL:BSCA:1,2013-03-03T09:30:00Z,30.3288,-87.8293,1.418,3.85,1111122 
DISL,ioos:station:DISL:BSCA:1,2013-03-03T10:00:00Z,30.3288,-87.8293,1.415,3.96,1111122 
DISL,ioos:station:DISL:BSCA:1,2013-03-03T10:30:00Z,30.3288,-87.8293,1.408,3.96,1111122 
DISL,ioos:station:DISL:BSCA:1,2013-03-03T11:00:00Z,30.3288,-87.8293,1.399,3.9,1111122 
DISL,ioos:station:DISL:BSCA:1,2013-03-03T11:30:00Z,30.3288,-87.8293,1.416,3.85,1111122 
DISL,ioos:station:DISL:BSCA:1,2013-03-03T12:00:00Z,30.3288,-87.8293,1.441,3.62,1111122 
DISL,ioos:station:DISL:BSCA:1,2013-03-03T12:30:00Z,30.3288,-87.8293,1.473,3.49,1111122 
DISL,ioos:station:DISL:BSCA:1,2013-03-03T13:00:00Z,30.3288,-87.8293,1.499,3.43,1111122 
DISL,ioos:station:DISL:BSCA:1,2013-03-03T13:30:00Z,30.3288,-87.8293,1.537,3.41,1111122 
DISL,ioos:station:DISL:BSCA:1,2013-03-03T14:00:00Z,30.3288,-87.8293,1.563,3.41,1111122 
DISL,ioos:station:DISL:BSCA:1,2013-03-03T14:30:00Z,30.3288,-87.8293,1.568,3.45,1111122 
DISL,ioos:station:DISL:BSCA:1,2013-03-03T15:00:00Z,30.3288,-87.8293,1.552,3.54,1111122 
DISL,ioos:station:DISL:BSCA:1,2013-03-03T15:30:00Z,30.3288,-87.8293,1.593,3.68,1111122 
DISL,ioos:station:DISL:BSCA:1,2013-03-03T16:00:00Z,30.3288,-87.8293,1.618,3.84,1111122 
DISL,ioos:station:DISL:BSCA:1,2013-03-03T16:30:00Z,30.3288,-87.8293,1.626,3.9,1111122 
DISL,ioos:station:DISL:BSCA:1,2013-03-03T17:00:00Z,30.3288,-87.8293,1.663,4.09,1111122 
DISL,ioos:station:DISL:BSCA:1,2013-03-03T17:30:00Z,30.3288,-87.8293,1.694,4.04,1111122 
DISL,ioos:station:DISL:BSCA:1,2013-03-03T18:00:00Z,30.3288,-87.8293,1.718,3.94,1111122 
DISL,ioos:station:DISL:BSCA:1,2013-03-03T18:30:00Z,30.3288,-87.8293,1.746,4.16,1111122 
DISL,ioos:station:DISL:BSCA:1,2013-03-03T19:00:00Z,30.3288,-87.8293,1.771,4.23,1111122 
DISL,ioos:station:DISL:BSCA:1,2013-03-03T19:30:00Z,30.3288,-87.8293,1.793,4.35,1111122 
DISL,ioos:station:DISL:BSCA:1,2013-03-03T20:00:00Z,30.3288,-87.8293,1.812,4.48,1111122 
DISL,ioos:station:DISL:BSCA:1,2013-03-03T20:30:00Z,30.3288,-87.8293,1.834,4.57,1111122 
DISL,ioos:station:DISL:BSCA:1,2013-03-03T21:00:00Z,30.3288,-87.8293,1.844,4.96,1111122 
DISL,ioos:station:DISL:BSCA:1,2013-03-03T21:30:00Z,30.3288,-87.8293,1.851,5.05,1111122 
DISL,ioos:station:DISL:BSCA:1,2013-03-03T22:00:00Z,30.3288,-87.8293,1.853,5.09,1111122 
DISL,ioos:station:DISL:BSCA:1,2013-03-03T22:30:00Z,30.3288,-87.8293,1.833,5.13,1111122 
DISL,ioos:station:DISL:BSCA:1,2013-03-03T23:00:00Z,30.3288,-87.8293,1.82,5.14,1111122 
DISL,ioos:station:DISL:BSCA:1,2013-03-03T23:30:00Z,30.3288,-87.8293,1.797,5.18,1111122 
DISL,ioos:station:DISL:BSCA:1,2013-03-04T00:00:00Z,30.3288,-87.8293,1.804,4.63,1111122 
DISL,ioos:station:DISL:BSCA:1,2013-03-04T00:30:00Z,30.3288,-87.8293,1.782,4.35,1111122 
DISL,ioos:station:DISL:BSCA:1,2013-03-04T01:00:00Z,30.3288,-87.8293,1.779,4.76,1111122 
DISL,ioos:station:DISL:BSCA:1,2013-03-04T01:30:00Z,30.3288,-87.8293,1.751,5.15,1111122 
DISL,ioos:station:DISL:BSCA:1,2013-03-04T02:00:00Z,30.3288,-87.8293,1.638,4.9,1111122 
DISL,ioos:station:DISL:BSCA:1,2013-03-04T02:30:00Z,30.3288,-87.8293,1.707,4.03,1111122 
DISL,ioos:station:DISL:BSCA:1,2013-03-04T03:00:00Z,30.3288,-87.8293,1.67,3.62,1111122 
DISL,ioos:station:DISL:BSCA:1,2013-03-04T03:30:00Z,30.3288,-87.8293,1.628,3.62,1111122 
DISL,ioos:station:DISL:BSCA:1,2013-03-04T04:00:00Z,30.3288,-87.8293,1.589,3.84,1111122 
DISL,ioos:station:DISL:BSCA:1,2013-03-04T04:30:00Z,30.3288,-87.8293,1.549,4.17,1111122 
DISL,ioos:station:DISL:BSCA:1,2013-03-04T05:00:00Z,30.3288,-87.8293,1.514,4.21,1111122 
DISL,ioos:station:DISL:BSCA:1,2013-03-04T05:30:00Z,30.3288,-87.8293,1.494,4.35,1111122 
DISL,ioos:station:DISL:BSCA:1,2013-03-04T06:00:00Z,30.3288,-87.8293,1.479,4.28,1111122 
DISL,ioos:station:DISL:BSCA:1,2013-03-04T06:30:00Z,30.3288,-87.8293,1.463,4.38,1111122 
DISL,ioos:station:DISL:BSCA:1,2013-03-04T07:00:00Z,30.3288,-87.8293,1.45,4.36,1111122 
DISL,ioos:station:DISL:BSCA:1,2013-03-04T07:30:00Z,30.3288,-87.8293,1.444,4.88,1111122 
DISL,ioos:station:DISL:BSCA:1,2013-03-04T08:00:00Z,30.3288,-87.8293,1.433,4.65,1111122 
DISL,ioos:station:DISL:BSCA:1,2013-03-04T08:30:00Z,30.3288,-87.8293,1.431,4.71,1111122 
DISL,ioos:station:DISL:BSCA:1,2013-03-04T09:00:00Z,30.3288,-87.8293,1.429,5.01,1111122 
DISL,ioos:station:DISL:BSCA:1,2013-03-04T09:30:00Z,30.3288,-87.8293,1.442,5.07,1111122 
DISL,ioos:station:DISL:BSCA:1,2013-03-04T10:00:00Z,30.3288,-87.8293,1.448,5.16,1111122 
DISL,ioos:station:DISL:BSCA:1,2013-03-04T10:30:00Z,30.3288,-87.8293,1.439,5.25,1111122 
DISL,ioos:station:DISL:BSCA:1,2013-03-04T11:00:00Z,30.3288,-87.8293,1.442,5.4,1111122 
DISL,ioos:station:DISL:BSCA:1,2013-03-04T11:30:00Z,30.3288,-87.8293,1.472,5.33,1111122 
DISL,ioos:station:DISL:BSCA:1,2013-03-04T12:00:00Z,30.3288,-87.8293,1.483,5.44,1111122 
DISL,ioos:station:DISL:BSCA:1,2013-03-04T12:30:00Z,30.3288,-87.8293,1.518,5.55,1111122 
DISL,ioos:station:DISL:BSCA:1,2013-03-04T13:00:00Z,30.3288,-87.8293,1.548,5.53,1111122 
DISL,ioos:station:DISL:BSCA:1,2013-03-04T13:30:00Z,30.3288,-87.8293,1.577,5.65,1111122 
DISL,ioos:station:DISL:BSCA:1,2013-03-04T14:00:00Z,30.3288,-87.8293,1.612,4.53,1111122 
DISL,ioos:station:DISL:BSCA:1,2013-03-04T14:30:00Z,30.3288,-87.8293,1.642,4.69,1111122 
DISL,ioos:station:DISL:BSCA:1,2013-03-04T15:00:00Z,30.3288,-87.8293,1.673,4.74,1111122 
DISL,ioos:station:DISL:BSCA:1,2013-03-04T15:30:00Z,30.3288,-87.8293,1.707,5.75,1111122 
DISL,ioos:station:DISL:BSCA:1,2013-03-04T16:00:00Z,30.3288,-87.8293,1.742,5.52,1111122 
DISL,ioos:station:DISL:BSCA:1,2013-03-04T16:30:00Z,30.3288,-87.8293,1.771,5.55,1111122 
DISL,ioos:station:DISL:BSCA:1,2013-03-04T17:00:00Z,30.3288,-87.8293,1.808,5.53,1111122 
DISL,ioos:station:DISL:BSCA:1,2013-03-04T17:30:00Z,30.3288,-87.8293,1.829,5.61,1111122 
DISL,ioos:station:DISL:BSCA:1,2013-03-04T18:00:00Z,30.3288,-87.8293,1.886,5.37,1111122 
DISL,ioos:station:DISL:BSCA:1,2013-03-04T18:30:00Z,30.3288,-87.8293,1.903,5.12,1111122 
DISL,ioos:station:DISL:BSCA:1,2013-03-04T19:00:00Z,30.3288,-87.8293,1.967,4.74,1111122 
DISL,ioos:station:DISL:BSCA:1,2013-03-04T19:30:00Z,30.3288,-87.8293,1.999,3.06,1111122 
DISL,ioos:station:DISL:BSCA:1,2013-03-04T20:00:00Z,30.3288,-87.8293,2.018,3.16,1111122 
DISL,ioos:station:DISL:BSCA:1,2013-03-04T20:30:00Z,30.3288,-87.8293,2.027,2.94,1111122 
DISL,ioos:station:DISL:BSCA:1,2013-03-04T21:00:00Z,30.3288,-87.8293,2.024,2.57,1111122 
DISL,ioos:station:DISL:BSCA:1,2013-03-04T21:30:00Z,30.3288,-87.8293,2.024,1.92,1111122 
DISL,ioos:station:DISL:BSCA:1,2013-03-04T22:00:00Z,30.3288,-87.8293,2.011,1.77,1111122 
DISL,ioos:station:DISL:BSCA:1,2013-03-04T22:30:00Z,30.3288,-87.8293,2.001,1.57,1111122 
DISL,ioos:station:DISL:BSCA:1,2013-03-04T23:00:00Z,30.3288,-87.8293,1.984,1.64,1111122 
DISL,ioos:station:DISL:BSCA:1,2013-03-04T23:30:00Z,30.3288,-87.8293,1.984,1.41,1111122 
DISL,ioos:station:DISL:BSCA:1,2013-03-05T00:00:00Z,30.3288,-87.8293,1.958,1.38,1111122 
DISL,ioos:station:DISL:BSCA:1,2013-03-05T00:30:00Z,30.3288,-87.8293,1.943,1.03,1111122 
DISL,ioos:station:DISL:BSCA:1,2013-03-05T01:00:00Z,30.3288,-87.8293,1.925,0.96,1111122 
DISL,ioos:station:DISL:BSCA:1,2013-03-05T01:30:00Z,30.3288,-87.8293,1.902,0.94,1111122 
DISL,ioos:station:DISL:BSCA:1,2013-03-05T02:00:00Z,30.3288,-87.8293,1.867,0.85,1111122 
DISL,ioos:station:DISL:BSCA:1,2013-03-05T02:30:00Z,30.3288,-87.8293,1.833,0.86,1111122 
DISL,ioos:station:DISL:BSCA:1,2013-03-05T03:00:00Z,30.3288,-87.8293,1.792,0.87,1111122 
DISL,ioos:station:DISL:BSCA:1,2013-03-05T03:30:00Z,30.3288,-87.8293,1.759,0.84,1111122 
DISL,ioos:station:DISL:BSCA:1,2013-03-05T04:00:00Z,30.3288,-87.8293,1.742,0.83,1111122 
DISL,ioos:station:DISL:BSCA:1,2013-03-05T04:30:00Z,30.3288,-87.8293,1.717,0.81,1111122 
DISL,ioos:station:DISL:BSCA:1,2013-03-05T05:00:00Z,30.3288,-87.8293,1.69,2.08,1111122 
DISL,ioos:station:DISL:BSCA:1,2013-03-05T05:30:00Z,30.3288,-87.8293,1.671,2.76,1111122 
DISL,ioos:station:DISL:BSCA:1,2013-03-05T06:00:00Z,30.3288,-87.8293,1.642,2.94,1111122 
DISL,ioos:station:DISL:BSCA:1,2013-03-05T06:30:00Z,30.3288,-87.8293,1.612,3.15,1111122 
DISL,ioos:station:DISL:BSCA:1,2013-03-05T07:00:00Z,30.3288,-87.8293,1.599,3.4,1111122 
DISL,ioos:station:DISL:BSCA:1,2013-03-05T07:30:00Z,30.3288,-87.8293,1.573,3.44,1111122 
DISL,ioos:station:DISL:BSCA:1,2013-03-05T08:00:00Z,30.3288,-87.8293,1.573,3.58,1111122 
DISL,ioos:station:DISL:BSCA:1,2013-03-05T08:30:00Z,30.3288,-87.8293,1.566,3.69,1111122 
DISL,ioos:station:DISL:BSCA:1,2013-03-05T09:00:00Z,30.3288,-87.8293,1.555,3.71,1111122 
DISL,ioos:station:DISL:BSCA:1,2013-03-05T09:30:00Z,30.3288,-87.8293,1.553,3.8,1111122 
DISL,ioos:station:DISL:BSCA:1,2013-03-05T10:00:00Z,30.3288,-87.8293,1.568,3.79,1111122 
DISL,ioos:station:DISL:BSCA:1,2013-03-05T10:30:00Z,30.3288,-87.8293,1.566,4.37,1111122 
DISL,ioos:station:DISL:BSCA:1,2013-03-05T11:00:00Z,30.3288,-87.8293,1.575,4.57,1111122 
DISL,ioos:station:DISL:BSCA:1,2013-03-05T11:30:00Z,30.3288,-87.8293,1.573,4.8,1111122 
DISL,ioos:station:DISL:BSCA:1,2013-03-05T12:00:00Z,30.3288,-87.8293,1.589,4.72,1111122 
DISL,ioos:station:DISL:BSCA:1,2013-03-05T12:30:00Z,30.3288,-87.8293,1.605,4.7,1111122 
DISL,ioos:station:DISL:BSCA:1,2013-03-05T13:00:00Z,30.3288,-87.8293,1.631,4.65,1111122 
DISL,ioos:station:DISL:BSCA:1,2013-03-05T13:30:00Z,30.3288,-87.8293,1.667,4.59,1111122 
DISL,ioos:station:DISL:BSCA:1,2013-03-05T14:00:00Z,30.3288,-87.8293,1.692,4.64,1111122 
DISL,ioos:station:DISL:BSCA:1,2013-03-05T14:30:00Z,30.3288,-87.8293,1.73,4.78,1111122 
DISL,ioos:station:DISL:BSCA:1,2013-03-05T15:00:00Z,30.3288,-87.8293,1.767,4.94,1111122 
DISL,ioos:station:DISL:BSCA:1,2013-03-05T15:30:00Z,30.3288,-87.8293,1.807,5.11,1111122 
DISL,ioos:station:DISL:BSCA:1,2013-03-05T16:00:00Z,30.3288,-87.8293,1.835,5.18,1111122 
DISL,ioos:station:DISL:BSCA:1,2013-03-05T16:30:00Z,30.3288,-87.8293,1.873,5.14,1111122 
DISL,ioos:station:DISL:BSCA:1,2013-03-05T17:00:00Z,30.3288,-87.8293,1.896,5.11,1111122 
DISL,ioos:station:DISL:BSCA:1,2013-03-05T17:30:00Z,30.3288,-87.8293,1.929,5.15,1111122 
DISL,ioos:station:DISL:BSCA:1,2013-03-05T18:00:00Z,30.3288,-87.8293,1.96,5.07,1111122 
DISL,ioos:station:DISL:BSCA:1,2013-03-05T18:30:00Z,30.3288,-87.8293,2.01,5.01,1111122 
DISL,ioos:station:DISL:BSCA:1,2013-03-05T19:00:00Z,30.3288,-87.8293,2.075,5.13,1111122 
DISL,ioos:station:DISL:BSCA:1,2013-03-05T19:30:00Z,30.3288,-87.8293,2.077,5.1,1111122 
DISL,ioos:station:DISL:BSCA:1,2013-03-05T20:00:00Z,30.3288,-87.8293,2.129,3.16,1111122 
DISL,ioos:station:DISL:BSCA:1,2013-03-05T20:30:00Z,30.3288,-87.8293,2.281,2.08,1111122 
DISL,ioos:station:DISL:BSCA:1,2013-03-05T21:00:00Z,30.3288,-87.8293,2.244,2.3,1111122 
DISL,ioos:station:DISL:BSCA:1,2013-03-05T21:30:00Z,30.3288,-87.8293,2.23,2.18,1111122 
DISL,ioos:station:DISL:BSCA:1,2013-03-05T22:00:00Z,30.3288,-87.8293,2.284,2.25,1111122 
DISL,ioos:station:DISL:BSCA:1,2013-03-05T22:30:00Z,30.3288,-87.8293,2.287,2.26,1111122 
DISL,ioos:station:DISL:BSCA:1,2013-03-05T23:00:00Z,30.3288,-87.8293,2.282,2.28,1111122 
DISL,ioos:station:DISL:BSCA:1,2013-03-05T23:30:00Z,30.3288,-87.8293,2.346,2.35,1111122 
DISL,ioos:station:DISL:BSCA:1,2013-03-06T00:00:00Z,30.3288,-87.8293,2.305,2.38,1111122 
DISL,ioos:station:DISL:BSCA:1,2013-03-06T00:30:00Z,30.3288,-87.8293,2.272,2.5,1111122 
DISL,ioos:station:DISL:BSCA:1,2013-03-06T01:00:00Z,30.3288,-87.8293,2.234,2.64,1111122 
DISL,ioos:station:DISL:BSCA:1,2013-03-06T01:30:00Z,30.3288,-87.8293,2.191,2.69,1111122 
DISL,ioos:station:DISL:BSCA:1,2013-03-06T02:00:00Z,30.3288,-87.8293,2.168,2.73,1111122 
DISL,ioos:station:DISL:BSCA:1,2013-03-06T02:30:00Z,30.3288,-87.8293,2.136,2.77,1111122 
DISL,ioos:station:DISL:BSCA:1,2013-03-06T03:00:00Z,30.3288,-87.8293,2.151,2.83,1111122 
DISL,ioos:station:DISL:BSCA:1,2013-03-06T03:30:00Z,30.3288,-87.8293,2.006,2.88,1111122 
DISL,ioos:station:DISL:BSCA:1,2013-03-06T04:00:00Z,30.3288,-87.8293,1.935,2.89,1111122 
DISL,ioos:station:DISL:BSCA:1,2013-03-06T04:30:00Z,30.3288,-87.8293,1.899,2.89,1111122 
DISL,ioos:station:DISL:BSCA:1,2013-03-06T05:00:00Z,30.3288,-87.8293,1.864,2.94,1111122 
DISL,ioos:station:DISL:BSCA:1,2013-03-06T05:30:00Z,30.3288,-87.8293,1.803,2.98,1111122 
DISL,ioos:station:DISL:BSCA:1,2013-03-06T06:00:00Z,30.3288,-87.8293,1.743,3.06,1111122 
DISL,ioos:station:DISL:BSCA:1,2013-03-06T06:30:00Z,30.3288,-87.8293,1.716,3.17,1111122 
DISL,ioos:station:DISL:BSCA:1,2013-03-06T07:00:00Z,30.3288,-87.8293,1.675,3.32,1111122 
DISL,ioos:station:DISL:BSCA:1,2013-03-06T07:30:00Z,30.3288,-87.8293,1.66,3.69,1111122 
DISL,ioos:station:DISL:BSCA:1,2013-03-06T08:00:00Z,30.3288,-87.8293,1.646,3.43,1111122 
DISL,ioos:station:DISL:BSCA:1,2013-03-06T08:30:00Z,30.3288,-87.8293,1.635,3.17,1111122 
DISL,ioos:station:DISL:BSCA:1,2013-03-06T09:00:00Z,30.3288,-87.8293,1.671,2.69,1111122 
DISL,ioos:station:DISL:BSCA:1,2013-03-06T09:30:00Z,30.3288,-87.8293,1.732,2.2,1111122 
DISL,ioos:station:DISL:BSCA:1,2013-03-06T10:00:00Z,30.3288,-87.8293,1.652,2.27,1111122 
DISL,ioos:station:DISL:BSCA:1,2013-03-06T10:30:00Z,30.3288,-87.8293,1.627,2.5,1111122 
DISL,ioos:station:DISL:BSCA:1,2013-03-06T11:00:00Z,30.3288,-87.8293,1.629,2.61,1111122 
DISL,ioos:station:DISL:BSCA:1,2013-03-06T11:30:00Z,30.3288,-87.8293,1.552,2.72,1111122 
DISL,ioos:station:DISL:BSCA:1,2013-03-06T12:00:00Z,30.3288,-87.8293,1.551,3.05,1111122 
DISL,ioos:station:DISL:BSCA:1,2013-03-06T12:30:00Z,30.3288,-87.8293,1.533,3.1,1111122 
DISL,ioos:station:DISL:BSCA:1,2013-03-06T13:00:00Z,30.3288,-87.8293,1.511,3.04,1111122 
DISL,ioos:station:DISL:BSCA:1,2013-03-06T13:30:00Z,30.3288,-87.8293,1.506,3.11,1111122 
DISL,ioos:station:DISL:BSCA:1,2013-03-06T14:00:00Z,30.3288,-87.8293,1.505,3.41,1111122 
DISL,ioos:station:DISL:BSCA:1,2013-03-06T14:30:00Z,30.3288,-87.8293,1.523,3.51,1111122 
DISL,ioos:station:DISL:BSCA:1,2013-03-06T15:00:00Z,30.3288,-87.8293,1.564,3.6,1111122 
DISL,ioos:station:DISL:BSCA:1,2013-03-06T15:30:00Z,30.3288,-87.8293,1.604,3.64,1111122 